Regional Weather Roundup
Issued by NWS

Home | Current Version | Previous Version | Graphics & Text | Print | Product List | Glossary On
Versions: 1 2 3 4 5 6 7 8 9 10 11 12 13 14 15 16 17 18 19 20 21 22 23 24 25 26 27 28 29 30 31 32 33 34 35 36 37 38 39 40 41 42 43 44 45 46 47 48 49 50
000
ASUS45 KPSR 180210
RWRAZ

ARIZONA REGIONAL HOURLY WEATHER ROUNDUP
NATIONAL WEATHER SERVICE PHOENIX AZ
700 PM MST FRI APR 17 2015

NOTE: FAIR INDICATES FEW OR NO CLOUDS BELOW 12,000 FEET WITH NO
SIGNIFICANT WEATHER AND/OR OBSTRUCTIONS TO VISIBILITY.

AZZ001>003-036-180300-
NORTHWEST ARIZONA

CITY           SKY/WX    TMP DP  RH WIND       PRES   REMARKS
BULLHEAD CITY  CLEAR     82  16   8 NW3       29.88S
KINGMAN        CLEAR     67  20  16 NE8       30.00F
$$

AZZ004>008-015-016-018-180300-
NORTH CENTRAL ARIZONA

CITY           SKY/WX    TMP DP  RH WIND       PRES   REMARKS
GRAND CANYON   PTCLDY    42  27  55 CALM      30.08S
WILLIAMS       MOCLDY    46  25  42 N8        30.15S
PRESCOTT       MOCLDY    58  23  26 N12       30.04S
FLAGSTAFF      CLOUDY    44  27  51 W3        30.10R
PAYSON         CLOUDY    57  19  23 W6G13     30.05S
PAGE           CLOUDY    59  31  34 NE3       29.97S
$$

AZZ009>014-017-180300-
NORTHEAST ARIZONA

CITY           SKY/WX    TMP DP  RH WIND       PRES   REMARKS
WINSLOW        CLEAR     55  29  36 NW6       30.03S
SAINT JOHNS    CLEAR     51  21  30 W14G22    30.03R
WINDOW ROCK    CLOUDY    46  22  38 W12       30.04R
SHOW LOW       MOCLDY    46  19  34 NW9       30.08R
$$

AZZ023-180300-
GREATER PHOENIX AREA

CITY           SKY/WX    TMP DP  RH WIND       PRES   REMARKS
PHOENIX        MOCLDY    79  19  10 W9        29.89R
BUCKEYE        CLEAR     75  23  14 NW8       29.91S
GLENDALE       MOCLDY    79  21  11 MISG      29.91R
LUKE AFB       PTCLDY    78  25  14 W7        29.89R
DEER VALLEY    PTCLDY    76  16  10 W12       29.90S
SCOTTSDALE     MOCLDY    77  18  11 CALM      29.92S
MESA-FALCON    MOCLDY    75  19  12 S8        29.91F
MESA-GATEWAY     N/A     73  23  15 VRB5      29.94S
CHANDLER       PTCLDY    75  19  12 VRB5      29.92S
$$

AZZ027-028-180300-
SOUTHWEST MARICOPA COUNTY AND PINAL COUNTY

CITY           SKY/WX    TMP DP  RH WIND       PRES   REMARKS
CASA GRANDE    PTCLDY    75  21  13 CALM      29.93S
GILA BEND      PTCLDY    79  16   9 NW12      29.90R
$$

AZZ503-504-507>509-180300-
SOUTHEAST ARIZONA

CITY           SKY/WX    TMP DP  RH WIND       PRES   REMARKS
TUCSON         CLEAR     71  15  11 N3        30.00S
DAVIS-MONTHAN  CLEAR     68  16  13 N6        29.98S
RYAN FIELD       N/A     72  18  13 CALM      29.99S
NOGALES        CLEAR     64  13  13 N5        30.01S
SIERRA VISTA   CLEAR     59  10  14 NW9       30.05R
DOUGLAS        CLEAR     59  16  18 N14       30.00S
SAFFORD        PTCLDY    66   9  10 W14       29.96R
$$

AZZ020-021-025-026-031-180300-
SOUTHWEST ARIZONA

CITY           SKY/WX    TMP DP  RH WIND       PRES   REMARKS
YUMA           CLEAR     82  27  13 S7        29.90R
$$

CAZ031-033-041-043-047-048-061-180300-
SOUTHERN CALIFORNIA

CITY           SKY/WX    TMP DP  RH WIND       PRES   REMARKS
DOWNTOWN L.A.  CLEAR     71  38  29 MISG      29.95R
L.A. AIRPORT   CLEAR     66  45  46 W16       29.96R
SAN DIEGO      CLEAR     71  46  40 NW8       29.99R
BURBANK        CLEAR     77  17  10 NW6       29.97R
ONTARIO        CLEAR     74  24  15 SW14      29.96S
RIVERSIDE      CLEAR     74  22  14 W13       29.97R
PALM SPRINGS   CLEAR     85  21   9 E12       29.88R
EL CENTRO NAS  CLEAR     83  18   9 S3        29.87S
IMPERIAL       CLEAR     84  20   9 VRB3      29.87S
BLYTHE         CLEAR     81  24  12 SE8       29.89S
NEEDLES        CLEAR     83  15   8 CALM      29.90S
$$

NVZ020-UTZ003-180300-
SOUTHERN NEVADA-UTAH

CITY           SKY/WX    TMP DP  RH WIND       PRES   REMARKS
LAS VEGAS      PTCLDY    78  13   8 S12       29.87F
SALT LAKE CITY MOCLDY    59  36  42 E6        30.01S
$$

NMZ009-TXZ055-180300-
NEW MEXICO-WEST TEXAS

CITY           SKY/WX    TMP DP  RH WIND       PRES   REMARKS
ALBUQUERQUE    MOCLDY    50  17  27 NW16      30.03R
EL PASO        PTCLDY    68   1   7 W10       29.95R
$$


........................KEY........................
SKY/WX - SKY CONDITION/WEATHER
TMP    - TEMPERATURE IN FAHRENHEIT
DP     - DEW POINT IN FAHRENHEIT
RH     - RELATIVE HUMIDITY IN PERCENT
WIND   - DIRECTION AND SPEED IN MILES PER HOUR (MPH)
VRB    - VARIABLE WIND DIRECTION
PRES   - MEAN SEA LEVEL PRESSURE IN INCHES OF MERCURY
         F - FALLING PRESSURE   R - RISING PRESSURE
         S - STEADY PRESSURE
VSB    - VISIBILITY IN MILES
HX     - HEAT INDEX IN FAHRENHEIT
WCI    - WIND CHILL INDEX IN FAHRENHEIT
TC     - TEMPERATURE IN CELSIUS WHICH IS ALSO KNOWN AS
         TEMPERATURE IN CENTIGRADE
AFB    - AIR FORCE BASE
         LUKE AFB IS LUKE AIR FORCE BASE
         DAVIS-MONTHAN IS DAVIS-MONTHAN AIR FORCE BASE
NAS    - NAVAL AIR STATION
         EL CENTRO NAS IS EL CENTRO NAVAL AIR STATION
N/A    - NOT AVAILABLE



USA.gov is the U.S. government's official web portal to all federal, state and local government web resources and services.